Location: Gro�sch�nbrunn
(49.5760°N, 11.8868°E)
Time: 22:20:34
(UTC+00:00)

Nadezhda 4 Rocket - Pass Details

Date: 18 September 2020
Orbit: 949 x 992 km, 82.9° (Epoch: 30 October)

Event Time Altitude Azimuth Distance (km) Brightness Sun altitude
Rises 18:50:00 0° 351° (N) 3,642 7.4 -15.3°
Reaches altitude 10° 18:52:31 10° 353° (N) 2,689 6.7 -15.7°
Maximum altitude 18:58:40 77° 80° (E) 981 3.9 -16.6°
Enters shadow 19:04:43 10° 166° (SSE) 2,652 5.9 -17.5°
